Location: Carrizalito
(10.3833°N, 67.0217°W)
Time: 13:20:30
(UTC+00:00)

Cosmos 2266 Rocket - Visible Passes

Search period start: 25 June 2022 00:00
Search period end: 05 July 2022 00:00
Orbit: 933 x 1008 km, 82.9° (Epoch: 24 June)

Date Brightness Start Highest point End Pass type
(mag) Time Alt. Az. Time Alt. Az. Time Alt. Az.
25 Jun 4.7 00:42:11 10° NNW 00:47:58 50° W 00:52:21 18° SSW visible
25 Jun 4.9 23:21:56 10° NNE 23:26:54 27° E 23:31:56 10° SE visible
26 Jun 5.9 01:07:15 10° NW 01:11:52 23° W 01:16:33 10° SW visible
26 Jun 4.0 23:45:01 10° N 23:50:55 58° E 23:56:55 10° SSE visible
28 Jun 4.2 00:08:54 10° N 00:14:53 68° W 00:20:59 10° S visible
29 Jun 5.6 00:33:34 10° NNW 00:38:49 32° W 00:44:09 10° SSW visible
29 Jun 4.4 23:12:08 10° NNE 23:17:50 42° E 23:23:35 10° SSE visible
30 Jun 6.5 00:59:35 10° WNW 01:02:42 14° W 01:05:51 10° WSW visible
30 Jun 4.0 23:35:45 10° N 23:41:48 89° E 23:47:59 10° S visible
02 Jul 5.1 00:00:04 10° NNW 00:05:45 43° W 00:11:32 10° SSW visible
03 Jul 6.3 00:25:21 10° NW 00:29:39 20° W 00:34:01 10° SW visible
04 Jul 4.6 23:26:43 10° NNW 23:32:41 59° W 23:38:45 10° S visible
